This is the latest recevied weather packets stored in our database for station/object KJ5FA-9. If no packets are shown the sender has not sent any weather packets the latest 10 day(s).
| Time | Temp. | Humidity | Pressure | Rain* | Wind** | Luminosity | Snow |
|---|---|---|---|---|---|---|---|
| 1788271765 | 28.33° C | 71% | 1019.8 hPa | 0 mm | - | - | - |
| 1788270265 | 26.67° C | 79% | 1020 hPa | 0 mm | - | - | - |
| 1788268764 | 25.56° C | 85% | 1019.9 hPa | 0 mm | - | - | - |
| 1788267264 | 23.89° C | 89% | 1019.8 hPa | 0 mm | - | - | - |
| 1788265766 | 23.33° C | 92% | 1019.5 hPa | 0 mm | - | - | - |
| 1788264264 | 22.78° C | 92% | 1019.2 hPa | 0 mm | - | - | - |
| 1788259764 | 23.33° C | 92% | 1018.6 hPa | 0 mm | - | - | - |
| 1788258264 | 23.33° C | 92% | 1018.4 hPa | 0 mm | - | - | - |
| 1788256766 | 23.33° C | 91% | 1018.3 hPa | 0 mm | - | - | - |
| 1788255265 | 23.33° C | 90% | 1018.4 hPa | 0 mm | - | - | - |
| 1788253764 | 23.89° C | 90% | 1018.3 hPa | 0 mm | - | - | - |
| 1788252266 | 23.89° C | 90% | 1018.5 hPa | 0 mm | - | - | - |
| 1788250764 | 23.89° C | 89% | 1018.2 hPa | 0 mm | - | - | - |
| 1788249264 | 24.44° C | 87% | 1018 hPa | 0 mm | - | - | - |
| 1788247764 | 24.44° C | 87% | 1018.1 hPa | 0 mm | - | - | - |
| 1788246264 | 25° C | 85% | 1017.7 hPa | 0 mm | - | - | - |
| 1788244764 | 25° C | 83% | 1017.7 hPa | 0 mm | - | - | - |
| 1788243264 | 25.56° C | 80% | 1017.8 hPa | 0 mm | - | - | - |
| 1788241764 | 25.56° C | 78% | 1017.7 hPa | 0 mm | - | - | - |
| 1788240264 | 26.11° C | 77% | 1017.5 hPa | 0 mm | - | - | - |
| 1788238810 | 26.67° C | 74% | 1017.7 hPa | 0 mm | - | - | - |
| 1788238764 | 26.67° C | 74% | 1017.7 hPa | 0 mm | - | - | - |
| 1788237264 | 27.22° C | 72% | 1017.5 hPa | 0 mm | - | - | - |
| 1788235764 | 27.78° C | 69% | 1017.5 hPa | 0 mm | - | - | - |
| 1788234267 | 28.89° C | 65% | 1017.4 hPa | 0 mm | - | - | - |
* Rain latest hour (hover to see other rain measurements)
** Current wind speed in m/s (hover to see current wind gust speed)